Location: Unspecified
(42.3650°N, 71.1030°W)
Time: 11:37:43
(UTC+00:00)

Courier 1B - Pass Details

Date: 25 June 2024
Orbit: 962 x 1209 km, 28.3° (Epoch: 13 July)

Event Time Altitude Azimuth Distance (km) Brightness Sun altitude
Rises 04:07:09 0° 226° (SW) 3,723 - -23.6°
Reaches altitude 10° 04:10:30 10° 210° (SSW) 2,813 - -23.7°
Maximum altitude 04:15:20 20° 165° (SSE) 2,202 - -23.9°
Drops below altitude 10° 04:20:22 10° 120° (ESE) 2,946 - -24.0°
Exits shadow 04:23:47 - 106° (ESE) 3,898 10.4 -24.0°
Sets 04:23:58 0° 105° (ESE) 3,953 10.5 -24.0°
